Вернуться в каталог

STARLINK-34721

АктивенСвязьVLEO
NORAD 65039·PAYLOAD·🇺🇸 United States

Запущен Jul 30, 2025 с Cape Canaveral Space Force Station

Loading…

Ближайшие Пролёты (ближайшие 24 часа)

TLE

СвежийSource: CelesTrak SupGP

Эпоха: Sep 15, 2026, 02:16 UTC

1 65039C 25161AA  26258.09493056  .00031888  00000+0  94229-3 0  2581
2 65039  53.1563 132.6266 0001248  86.8105 288.3849 15.34369322    18

Отслеживайте STARLINK-34721 в реальном времени с AllMySat

Download on the App Store